This is the latest recevied weather packets stored in our database for station/object N0MR. If no packets are shown the sender has not sent any weather packets the latest 10 day(s).
| Time | Temp. | Humidity | Pressure | Rain* | Wind** | Luminosity | Snow |
|---|---|---|---|---|---|---|---|
| 1777950710 | 2.22° C | 73% | 1001.4 hPa | 0 mm | - | - | - |
| 1777950109 | 2.22° C | 73% | 1001.4 hPa | 0 mm | - | - | - |
| 1777949508 | 2.78° C | 71% | 1001.2 hPa | 0 mm | - | - | - |
| 1777948909 | 2.78° C | 71% | 1001 hPa | 0 mm | - | - | - |
| 1777948310 | 2.78° C | 71% | 1001 hPa | 0 mm | - | - | - |
| 1777947710 | 3.33° C | 70% | 1000.8 hPa | 0 mm | - | - | - |
| 1777947109 | 3.33° C | 70% | 1000.8 hPa | 0 mm | - | - | - |
| 1777946509 | 3.89° C | 65% | 1000.6 hPa | 0 mm | - | - | - |
| 1777945909 | 3.89° C | 65% | 1000.6 hPa | 0 mm | - | - | - |
| 1777945309 | 4.44° C | 60% | 1000.1 hPa | 0 mm | - | - | - |
| 1777944710 | 4.44° C | 60% | 1000.1 hPa | 0 mm | - | - | - |
| 1777944109 | 4.44° C | 59% | 999.9 hPa | 0 mm | - | - | - |
| 1777943509 | 4.44° C | 59% | 999.9 hPa | 0 mm | - | - | - |
| 1777942910 | 4.44° C | 58% | 999.7 hPa | 0 mm | - | - | - |
| 1777942310 | 4.44° C | 58% | 999.7 hPa | 0 mm | - | - | - |
| 1777941709 | 5° C | 58% | 999.5 hPa | 0 mm | - | - | - |
| 1777941109 | 5° C | 58% | 999.5 hPa | 0 mm | - | - | - |
| 1777940510 | 5° C | 59% | 999.4 hPa | 0 mm | - | - | - |
| 1777939909 | 5° C | 59% | 999.4 hPa | 0 mm | - | - | - |
| 1777939311 | 5° C | 60% | 999.2 hPa | 0 mm | - | - | - |
| 1777938111 | 5° C | 62% | 999 hPa | 0 mm | - | - | - |
| 1777937510 | 5.56° C | 61% | 998.8 hPa | 0 mm | - | - | - |
| 1777936910 | 5.56° C | 61% | 998.8 hPa | 0 mm | - | - | - |
| 1777936311 | 6.11° C | 59% | 998.4 hPa | 0 mm | - | - | - |
| 1777935711 | 6.11° C | 59% | 998.4 hPa | 0 mm | - | - | - |
* Rain latest hour (hover to see other rain measurements)
** Current wind speed in m/s (hover to see current wind gust speed)